| time (UTC) | temp F | wind direction | speed knots | gust knots | rain 1hr in | rain 24hr in | rain mn in | humidity % | barometer mb |
| 20260504194518 | 81 | 256 | 2.6 | 10.4 | 0.00 | 0.00 | 0.00 | 38 | 1015.8 |
| 20260504193023 | 81 | 152 | 4.3 | 7.8 | 0.00 | 0.00 | 0.00 | 37 | 1016.0 |
| 20260504191525 | 80 | 132 | 1.7 | 7.8 | 0.00 | 0.00 | 0.00 | 39 | 1016.2 |
| 20260504190028 | 80 | 246 | 1.7 | 8.7 | 0.00 | 0.00 | 0.00 | 40 | 1016.2 |
| 20260504184514 | 80 | 131 | 3.5 | 8.7 | 0.00 | 0.00 | 0.00 | 40 | 1016.4 |
| 20260504183020 | 80 | 175 | 1.7 | 7.8 | 0.00 | 0.00 | 0.00 | 39 | 1016.5 |
| 20260504181523 | 80 | 275 | 2.6 | 8.7 | 0.00 | 0.00 | 0.00 | 38 | 1016.7 |
| 20260504180028 | 79 | 221 | 2.6 | 7.8 | 0.00 | 0.00 | 0.00 | 40 | 1016.9 |
| 20260504174525 | 79 | 231 | 0.9 | 5.2 | 0.00 | 0.00 | 0.00 | 40 | 1017.0 |
| 20260504173014 | 79 | 106 | 0.9 | 9.6 | 0.00 | 0.00 | 0.00 | 39 | 1017.2 |
| 20260504171504 | 77 | 259 | 3.5 | 6.1 | 0.00 | 0.00 | 0.00 | 41 | 1017.8 |
| 20260504081512 | 46 | 117 | 0.0 | 0.0 | 0.00 | 0.00 | 0.00 | 94 | 1018.3 |
| 20260504050008 | 50 | 117 | 0.0 | 0.0 | 0.00 | 0.00 | 0.00 | 92 | 1019.2 |
| 20260504044515 | 51 | 117 | 0.0 | 0.0 | 0.00 | 0.00 | 0.00 | 92 | 1019.3 |
| 20260504043023 | 51 | 117 | 0.0 | 0.9 | 0.00 | 0.00 | 0.00 | 91 | 1019.4 |
| 20260504041522 | 52 | 175 | 0.0 | 0.0 | 0.00 | 0.00 | 0.00 | 91 | 1019.5 |
| 20260504040024 | 53 | 96 | 0.0 | 1.7 | 0.00 | 0.00 | 0.00 | 91 | 1019.5 |
| 20260504034509 | 53 | 175 | 0.0 | 0.0 | 0.00 | 0.00 | 0.00 | 92 | 1019.4 |
| 20260504033014 | 53 | 115 | 0.0 | 1.7 | 0.00 | 0.00 | 0.00 | 90 | 1019.6 |
| 20260504031518 | 54 | 174 | 0.0 | 0.0 | 0.00 | 0.00 | 0.00 | 91 | 1019.6 |
| 20260504030025 | 54 | 83 | 0.0 | 0.0 | 0.00 | 0.00 | 0.00 | 90 | 1019.4 |
| 20260504024525 | 55 | 123 | 0.0 | 1.7 | 0.00 | 0.00 | 0.00 | 90 | 1019.3 |
| 20260504023010 | 55 | 116 | 0.0 | 0.9 | 0.00 | 0.00 | 0.00 | 88 | 1019.2 |
| 20260504021517 | 56 | 103 | 0.0 | 0.9 | 0.00 | 0.00 | 0.00 | 87 | 1019.1 |
| 20260504020020 | 56 | 83 | 0.0 | 0.9 | 0.00 | 0.00 | 0.00 | 85 | 1019.0 |
| 20260504014524 | 58 | 181 | 0.0 | 0.0 | 0.00 | 0.00 | 0.00 | 85 | 1018.8 |
| 20260504013030 | 59 | 181 | 0.0 | 0.0 | 0.00 | 0.00 | 0.00 | 83 | 1018.5 |
| 20260504011514 | 60 | 181 | 0.0 | 0.0 | 0.00 | 0.00 | 0.00 | 80 | 1018.5 |
| 20260504010015 | 62 | 279 | 0.0 | 0.0 | 0.00 | 0.00 | 0.00 | 79 | 1018.3 |
| 20260504004523 | 64 | 279 | 0.0 | 0.0 | 0.00 | 0.00 | 0.00 | 74 | 1018.3 |
| 20260504003023 | 68 | 279 | 0.0 | 0.0 | 0.00 | 0.00 | 0.00 | 69 | 1018.3 |
| 20260504001526 | 72 | 279 | 0.0 | 0.0 | 0.00 | 0.00 | 0.00 | 61 | 1018.1 |
| 20260504000016 | 75 | 279 | 0.0 | 0.0 | 0.00 | 0.00 | 0.00 | 54 | 1018.1 |
| 20260503234519 | 77 | 280 | 0.0 | 0.9 | 0.00 | 0.00 | 0.00 | 50 | 1018.2 |
| 20260503233021 | 77 | 269 | 0.9 | 1.7 | 0.00 | 0.00 | 0.00 | 37 | 1018.2 |
| 20260503231504 | 77 | 264 | 0.9 | 1.7 | 0.00 | 0.00 | 0.00 | 36 | 1018.3 |
| 20260503230003 | 77 | 298 | 0.9 | 4.3 | 0.00 | 0.00 | 0.00 | 36 | 1018.3 |
| 20260503224503 | 77 | 236 | 3.5 | 7.0 | 0.00 | 0.00 | 0.00 | 37 | 1018.4 |
| 20260503223005 | 78 | 201 | 0.0 | 2.6 | 0.00 | 0.00 | 0.00 | 35 | 1018.3 |
| 20260503221503 | 76 | 314 | 1.7 | 5.2 | 0.00 | 0.00 | 0.00 | 35 | 1018.4 |
| 20260503220004 | 77 | 286 | 1.7 | 5.2 | 0.00 | 0.00 | 0.00 | 35 | 1018.6 |
| 20260503214507 | 76 | 296 | 3.5 | 7.0 | 0.00 | 0.00 | 0.00 | 35 | 1018.8 |
| 20260503213004 | 76 | 267 | 4.3 | 7.8 | 0.00 | 0.00 | 0.00 | 35 | 1019.1 |
| 20260503211504 | 77 | 273 | 3.5 | 7.0 | 0.00 | 0.00 | 0.00 | 36 | 1019.1 |
| 20260503210008 | 77 | 294 | 2.6 | 5.2 | 0.00 | 0.00 | 0.00 | 35 | 1019.3 |
| 20260503204506 | 75 | 273 | 1.7 | 7.0 | 0.00 | 0.00 | 0.00 | 38 | 1019.5 |
| 20260503203005 | 76 | 7 | 1.7 | 6.1 | 0.00 | 0.00 | 0.00 | 39 | 1019.6 |
| 20260503201508 | 75 | 82 | 1.7 | 7.8 | 0.00 | 0.00 | 0.00 | 38 | 1019.9 |
| 20260503200004 | 76 | 302 | 5.2 | 7.8 | 0.00 | 0.00 | 0.00 | 37 | 1020.2 |